sat.trackr.live / text

‹ back to catalog

ORBCOMM FM04

NORAD 25159 · 1998-007C

PAYLOAD ACTIVE UNKNOWN

§ Identity

Operator
Country
ORB
Launch date
1998-02-10
Launch site
AFWTR
Launch vehicle
Mass (kg)
RCS (m²)
0.88

Purposes: comms

External: N2YO · Heavens-Above · Gunter

§ Orbital elements

Epoch: 2026-09-19T02:26:37.806144Z

Period
100.29 min
Inclination
107.9603°
Eccentricity
0.0040265
Mean motion
14.35868820 rev/d
Perigee alt
743.4 km
Apogee alt
801.0 km
Semi-major
7,150.3 km
B*
2.3660e-4
RAAN
2.7099°
Arg perigee
164.8412°
Mean anomaly
195.3944°
Rev number
49,007

§ Raw data

ORBCOMM FM041 25159U 98007C   26262.10182646  .00000560  00000+0  23660-3 0  99922 25159 107.9603   2.7099 0040265 164.8412 195.3944 14.35868820490070

JSON: /api/v1/satellites/25159 · /tle

For live sub-satellite position, see the globe view (requires WebGL).

§ Visibility from observer

Set your observer location to see the next 7 days of passes ≥ 10°. The values pass through the URL so the page stays shareable.

No JS? Fill the form by hand. The geolocation button needs JavaScript.